NapervilleWeather.com

Find the Weather for any City, State  
or Zipcode, or Country:

Naperville, IL Weather
Local Radar

Local Radar

Graphs, Details
Graphs and Gauges
Detailed Weather
Detailed Reports
Ajax Version (old)
Davis Summary
Davis Current Weather Graphs
Davis 24 Hour Weather History
Cumulus

CW7164 Data

Weather Underground
www.awekas.at
Automatic Weather Map System
Latest Naperville, Illinois, weather
Weather For You
Maps
Temperature
Heat Index
Windchill
Humidity
Radar
Dew Point
Wind
Visibility
Visible Satellite
Satellite
Fronts
Snow Depth
Jet Stream
Flight Rules
Forecast Maps
Temperature Forecast
Maximum Temperature Forecast
Minimum Temperature Forecast
Dewpoint Forecast
Prevalent Weather
12Hr Probability of Precip.
Sky Cover
Health Maps
UV Forecast
Air Quality
Peak Air Quality Index
Weather Station
Davis Instruments Vantage Pro2
Current Conditions [Select Refresh to Update]

Updated: 2:53am on 1/22/17

(location)
Currently:
37.2°F

Clear
haze

High: 37.2 °F< 
(2:51am
Low: 34.6 °F 
(12:52am)
Wind: W 0 mph
Calm
Gust: 0 mph
Today's High Wind: 0 mph (12:00am)
Humidity: 0%
Pressure: 29.65 in  (Steady
Pressure Rate: 0.011 in/hr
Dew Point: 0.0°F
Wind Chill: 37.2 °F
Heat Index (feels like): 35.0 °F
Comfort Level: Cool
Temperature Rate:  1.41°F/hr
 
5 Day Forecast
 
Fri Sat Sun Mon Tue
Clear Clear Clear Clear Clear
Chance Rain Cloudy Chance Rain Chance Rain Cloudy
45 55 49 42 41
40 39 37 32 32

Records and Normals
 
Temperature Forecast Normal Record
High 45 0 0
(0)
Low 40 0 0
(0)
 
 
Weather Advisories
No Warnings
Full Advisory Text...
Weather Map

Web Cam

Almanac
 
Sunrise:  
7:11am
Moonrise: 
2:31am

Moon Phase:
27%

Sunset: 
4:54pm
Moonset:  
12:56pm
 Star Chart...
Rainfall Totals
Hourly Rain 0.00 in
Daily Rain: 0.00 in
Monthly Rain: 1.50 in
Yearly Rain: 1.50 in
Normal Rain, month to date: 0.00 in
Normal Rain, year to date: 0.00 in
Local Weather Exchange Network
Station ID City 
(Click for Map Location)
Neighborhood 
(Click for History)
Last Update (Date & Time) Temperature
 ()
Dew
Point ()
Humidity 
(%)
Wind 
(mph)
from the Wind Gust 
(mph) 
Pressure(in) Hourly
Rain(in)
KILNAPER15 Naperville Indian Hill Near Jefferson JHS 01/19 12:09:59 39.9 38.0 92 3 East 7 29.92 0.00
KILNAPER28 Naperville Pawnee Lane 01/19 12:01:59 42.4 39.0 86 0 North 0 29.99 0.00
KILNAPER25 Naperville brushhill-w 01/19 12:02:47 40.1 38.0 91 2 East 4 29.93 0.00
KILNAPER24 Naperville Brush Hill 01/19 12:09:07 40.2 39.0 96 2 North 6 29.87 0.00
KILNAPER65 Naperville South Sleight Street 01/19 12:04:21 41.9 41.0 96 0 North 0 29.09 0.00
KILNAPER69 Naperville East Highlands 01/19 12:09:17 41.0 34.0 76 3 NNE 5 29.66 0.00
KILNAPER7 Naperville NapervilleWeather.com Near Ogden and Naper Blvd 01/19 12:08:53 39.5 0.0 0 0 NNE 2 29.96 0.00
KILWARRE11 Warrenville Herrick Woods 01/19 12:09:14 40.6 38.0 90 0 ENE 5 29.94 0.00
KILNAPER19 Naperville Brookdale Lakes 01/19 12:10:02 39.6 38.0 94 3 East 6 29.94 0.00
KILWARRE2 Warrenville Warrenville Neighborhood Weather 01/19 12:05:32 39.7 38.0 93 4 SE 0 29.91 0.00
KILNAPER84 Naperville E. Highlands 01/19 12:09:31 40.8 38.0 88 0 NNE 0 29.89 0.00
KILNAPER74 Naperville Ambleside Circle 01/19 12:00:51 41.0 40.0 97 0 North 0 29.83 0.00
KILNAPER23 Naperville Naper Blvd at BNSF RR 01/19 12:09:51 39.8 39.0 96 1 ESE 3 29.95 0.00
KILNAPER60 Naperville Longwood 01/19 12:09:50 40.5 38.0 91 1 ESE 5 29.94 0.00
KILNAPER30 Naperville Cypress Drive 01/19 12:00:31 42.1 39.0 88 0 North 0 29.77 0.00
KILLISLE10 Lisle Maple Avenue 01/19 12:02:11 41.0 39.0 93 0 North 0 30.00 0.00
KILNAPER9 Naperville 75th St. / Modaff Area 01/19 12:09:44 40.4 39.0 96 0 SE 3 29.92 0.00
KILWARRE12 Warrenhurst Warrenville 01/19 12:02:34 39.7 37.0 91 0 North 0 29.90 0.00
KILNAPER53 Naperville Bovidae Circle 01/19 12:02:30 39.7 38.0 93 0 North 0 29.25 0.00
KILWARRE6 Warrenville Summer Lakes 01/19 12:09:45 40.7 38.0 91 0 ESE 2 29.94 0.00
KILWHEAT15 Wheaton Schubert Court 01/19 12:04:13 41.5 42.0 100 0 North 0 29.86 0.00
KILLISLE13 Lisle Oakwood Drive 01/19 12:02:54 41.0 37.0 87 0 North 0 29.89 0.00
KILNAPER67 Naperville Split Oak Road 01/19 12:03:42 43.2 43.0 100 1 NE 4 29.98 0.00
KILAUROR65 Aurora Thatchers Grove 01/19 12:09:52 40.8 37.0 88 0 North 0 30.09 0.00
KILAUROR41 Aurora Hamman Way 01/19 11:23:49 36.9 37.0 100 0 North 0 29.80 0.00
KILAUROR27 Aurora Stonehaven 01/19 12:09:32 41.9 37.0 85 3 SE 0 30.17 0.00
KILNAPER35 Naperville Nutmeg Lane 01/19 12:02:32 40.8 40.0 98 0 North 0 30.00 0.00
KDPA Chicago DuPage Official Station 01/19 11:52:00 39.0 35.0 86 6 ESE --- 29.94 ---
KLOT Romeoville Official Station 01/19 11:55:00 39.0 38.0 97 6 ESE --- 29.93 ---
KARR Aurora Official Station 01/19 11:52:00 39.0 36.0 89 9 East --- 29.93 ---
KJOT Joliet Official Station 01/19 11:55:00 39.0 37.0 93 8 SE --- 29.94 ---
Full Advisory Text
No Warnings

Ambient Weather and Weather Underground
 Never base important decisions on this or any weather information obtained from the Internet
Updated Automatically by Ambient Weather's Virtual Weather Station  V14.01